Charleston, SC

1:45 PM EST on February 10, 2016 (GMT -0500)
Charleston Executive

Weather History for KJZI - December, 2012

Change the Weather History Date:

Friday, December 7, 2012

  Actual Average (KCHS) Record (KCHS)
Temperature  
Mean Temperature 58 °F 53 °F  
Max Temperature 64 °F 64 °F 81 °F (1951)
Min Temperature 53 °F 42 °F 23 °F (1984)
Degree Days  
Heating Degree Days 6 13  
Month to date heating degree days 83  
Since 1 July heating degree days 375  
Cooling Degree Days 0 0  
Month to date cooling degree days 0  
Year to date cooling degree days 2297  
Growing Degree Days 8 (Base 50)    
Moisture  
Dew Point 51 °F    
Average Humidity 82    
Maximum Humidity 94    
Minimum Humidity 68    
Precipitation  
Precipitation 0.00 in 0.08 in 1.14 in (1976)
Month to date precipitation 0.64  
Year to date precipitation 48.56  
Sea Level Pressure  
Sea Level Pressure 30.04 in    
Wind  
Wind Speed 8 mph (North)    
Max Wind Speed 13 mph    
Max Gust Speed 17 mph    
Visibility 8 miles    
Events      
T = Trace of Precipitation, MM = Missing Value Source: NWS Daily Summary

Daily Weather History Graph

Daily Weather History Graph

Search for Another Location

Airport or City:

Trip Planner

Search our weather history database for the weather conditions in past years. The results will help you decide how hot, cold, wet, or windy it might be!

Date:

Astronomy

Dec. 07, 2012 Rise Set
Actual Time 7:09 AM EST 5:13 PM EST
Civil Twilight 6:42 AM EST 5:41 PM EST
Nautical Twilight 6:11 AM EST 6:11 PM EST
Astronomical Twilight 5:41 AM EST 6:41 PM EST
Moon 12:45 AM EST (12/7) 12:53 PM EST (12/7)
Length of Visible Light 10h 58m
Length of Day
10h 04m
Last Quarter, 39% of the Moon is Illuminated
Dec 7
Last Quarter
Dec 13
New
Dec 20
First Quarter
Dec 28
Full
Jan 4
Last Quarter

Hourly Weather History & Observations

Time (EST) Temp. Dew Point Humidity Pressure Visibility Wind Dir Wind Speed Gust Speed Precip Events Conditions
12:15 AM 53.6 °F 44.6 °F 72% 30.12 in 10.0 mi North 8.1 mph - 0.00 in   Overcast
12:55 AM 53.6 °F 46.4 °F 77% 30.11 in 10.0 mi NNE 10.4 mph - 0.00 in   Overcast
1:15 AM 53.6 °F 46.4 °F 77% 30.10 in 10.0 mi NNE 9.2 mph - 0.00 in   Overcast
1:35 AM 53.6 °F 46.4 °F 77% 30.10 in 10.0 mi NNE 8.1 mph - 0.00 in   Overcast
1:55 AM 53.6 °F 46.4 °F 77% 30.09 in 10.0 mi NNE 8.1 mph - 0.00 in   Overcast
2:15 AM 53.6 °F 48.2 °F 82% 30.08 in 10.0 mi NE 10.4 mph - 0.00 in   Overcast
2:35 AM 53.6 °F 48.2 °F 82% 30.08 in 10.0 mi NNE 9.2 mph - 0.00 in   Overcast
2:55 AM 53.6 °F 48.2 °F 82% 30.07 in 10.0 mi North 10.4 mph - 0.00 in   Overcast
3:15 AM 53.6 °F 48.2 °F 82% 30.07 in 10.0 mi North 10.4 mph - 0.00 in   Overcast
3:35 AM 53.6 °F 48.2 °F 82% 30.07 in 10.0 mi North 9.2 mph - 0.00 in   Overcast
3:55 AM 53.6 °F 48.2 °F 82% 30.06 in 10.0 mi NNE 10.4 mph 16.1 mph 0.00 in   Overcast
4:15 AM 53.6 °F 48.2 °F 82% 30.06 in 10.0 mi NNE 8.1 mph - 0.00 in   Overcast
4:35 AM 53.6 °F 48.2 °F 82% 30.06 in 10.0 mi North 9.2 mph - 0.00 in   Overcast
4:55 AM 53.6 °F 50.0 °F 88% 30.06 in 10.0 mi North 9.2 mph 16.1 mph 0.00 in   Overcast
5:15 AM 53.6 °F 48.2 °F 82% 30.06 in 10.0 mi North 9.2 mph - 0.00 in   Overcast
5:35 AM 53.6 °F 48.2 °F 82% 30.06 in 10.0 mi North 11.5 mph 17.3 mph 0.00 in   Overcast
5:55 AM 53.6 °F 48.2 °F 82% 30.06 in 10.0 mi North 11.5 mph - 0.00 in   Overcast
6:15 AM 53.6 °F 48.2 °F 82% 30.06 in 10.0 mi North 10.4 mph - 0.00 in   Overcast
6:35 AM 53.6 °F 48.2 °F 82% 30.06 in 10.0 mi North 8.1 mph - 0.00 in   Overcast
6:55 AM 53.6 °F 48.2 °F 82% 30.05 in 10.0 mi North 6.9 mph - 0.00 in   Overcast
7:15 AM 53.6 °F 48.2 °F 82% 30.05 in 10.0 mi North 8.1 mph - 0.00 in   Overcast
7:35 AM 53.6 °F 48.2 °F 82% 30.06 in 8.0 mi North 10.4 mph - 0.00 in   Overcast
7:55 AM 53.6 °F 48.2 °F 82% 30.07 in 7.0 mi North 12.7 mph - 0.00 in   Overcast
8:15 AM 53.6 °F 48.2 °F 82% 30.07 in 6.0 mi North 9.2 mph - 0.00 in   Overcast
8:35 AM 53.6 °F 48.2 °F 82% 30.07 in 5.0 mi North 11.5 mph - 0.00 in   Overcast
8:55 AM 53.6 °F 50.0 °F 88% 30.08 in 5.0 mi North 6.9 mph - 0.00 in   Overcast
9:15 AM 53.6 °F 50.0 °F 88% 30.08 in 5.0 mi North 10.4 mph - 0.00 in   Overcast
9:35 AM 53.6 °F 50.0 °F 88% 30.09 in 5.0 mi North 9.2 mph - 0.00 in   Overcast
9:55 AM 55.4 °F 50.0 °F 82% 30.09 in 4.0 mi North 9.2 mph - 0.00 in   Haze
10:15 AM 55.4 °F 50.0 °F 82% 30.09 in 3.0 mi NNW 8.1 mph - 0.00 in   Haze
10:35 AM 55.4 °F 51.8 °F 88% 30.08 in 3.0 mi NNW 9.2 mph - 0.00 in   Haze
10:55 AM 55.4 °F 51.8 °F 88% 30.07 in 4.0 mi North 6.9 mph 17.3 mph 0.00 in   Haze
11:15 AM 55.4 °F 51.8 °F 88% 30.08 in 5.0 mi NNW 9.2 mph - 0.00 in   Overcast
11:35 AM 55.4 °F 51.8 °F 88% 30.07 in 5.0 mi North 8.1 mph - 0.00 in   Haze
11:55 AM 57.2 °F 51.8 °F 82% 30.06 in 4.0 mi NNW 6.9 mph - 0.00 in   Haze
12:15 PM 59.0 °F 51.8 °F 77% 30.04 in 7.0 mi North 8.1 mph - 0.00 in   Overcast
12:35 PM 60.8 °F 51.8 °F 72% 30.03 in 7.0 mi NNW 8.1 mph - 0.00 in   Overcast
12:55 PM 60.8 °F 53.6 °F 77% 30.02 in 7.0 mi North 5.8 mph - 0.00 in   Unknown
1:15 PM 62.6 °F 53.6 °F 72% 30.01 in 7.0 mi NNW 6.9 mph - 0.00 in   Overcast
1:35 PM 62.6 °F 53.6 °F 72% 30.00 in 8.0 mi North 8.1 mph - 0.00 in   Overcast
1:55 PM 62.6 °F 53.6 °F 72% 30.00 in 9.0 mi NNW 6.9 mph - 0.00 in   Overcast
2:15 PM 62.6 °F 53.6 °F 72% 30.00 in 8.0 mi North 6.9 mph - 0.00 in   Overcast
2:35 PM 62.6 °F 53.6 °F 72% 30.00 in 9.0 mi North 6.9 mph - 0.00 in   Overcast
2:55 PM 62.6 °F 53.6 °F 72% 30.00 in 10.0 mi NNW 5.8 mph - 0.00 in   Overcast
3:15 PM 64.4 °F 55.4 °F 73% 29.99 in 10.0 mi North 6.9 mph - 0.00 in   Overcast
3:35 PM 64.4 °F 53.6 °F 68% 29.99 in 10.0 mi NNW 6.9 mph - 0.00 in   Overcast
3:55 PM 62.6 °F 55.4 °F 77% 29.99 in 9.0 mi North 6.9 mph - 0.00 in   Overcast
4:15 PM 62.6 °F 55.4 °F 77% 29.99 in 9.0 mi North 8.1 mph - 0.00 in   Scattered Clouds
4:35 PM 62.6 °F 55.4 °F 77% 29.99 in 9.0 mi North 3.5 mph - 0.00 in   Mostly Cloudy
4:55 PM 62.6 °F 55.4 °F 77% 29.99 in 9.0 mi NNW 4.6 mph - 0.00 in   Mostly Cloudy
5:15 PM 60.8 °F 55.4 °F 82% 29.99 in 10.0 mi North 5.8 mph - 0.00 in   Scattered Clouds
5:35 PM 60.8 °F 53.6 °F 77% 30.00 in 10.0 mi Calm Calm - 0.00 in   Partly Cloudy
5:55 PM 59.0 °F 53.6 °F 82% 30.00 in 7.0 mi North 4.6 mph - 0.00 in   Mostly Cloudy
6:15 PM 59.0 °F 53.6 °F 82% 30.01 in 8.0 mi North 5.8 mph - 0.00 in   Mostly Cloudy
6:35 PM 57.2 °F 53.6 °F 88% 30.01 in 7.0 mi NNW 6.9 mph - 0.00 in   Mostly Cloudy
6:55 PM 57.2 °F 53.6 °F 88% 30.01 in 8.0 mi NNW 4.6 mph - 0.00 in   Mostly Cloudy
7:15 PM 57.2 °F 53.6 °F 88% 30.02 in 8.0 mi NNW 4.6 mph - 0.00 in   Scattered Clouds
7:35 PM 57.2 °F 53.6 °F 88% 30.02 in 8.0 mi Calm Calm - 0.00 in   Mostly Cloudy
7:55 PM 57.2 °F 53.6 °F 88% 30.02 in 9.0 mi NNW 3.5 mph - 0.00 in   Overcast
8:15 PM 57.2 °F 53.6 °F 88% 30.02 in 8.0 mi Calm Calm - 0.00 in   Mostly Cloudy
8:35 PM 57.2 °F 53.6 °F 88% 30.03 in 7.0 mi Calm Calm - 0.00 in   Mostly Cloudy
8:55 PM 57.2 °F 53.6 °F 88% 30.04 in 6.0 mi Calm Calm - 0.00 in   Overcast
9:15 PM 57.2 °F 53.6 °F 88% 30.03 in 6.0 mi Calm Calm - 0.00 in   Mostly Cloudy
9:35 PM 55.4 °F 53.6 °F 94% 30.03 in 7.0 mi Calm Calm - 0.00 in   Partly Cloudy
10:15 PM 55.4 °F 53.6 °F 94% 30.04 in 5.0 mi Calm Calm - 0.00 in   Mostly Cloudy
10:35 PM 55.4 °F 53.6 °F 94% 30.04 in 5.0 mi Calm Calm - 0.00 in   Overcast
10:55 PM 55.4 °F 53.6 °F 94% 30.04 in 5.0 mi NW 3.5 mph - 0.00 in   Overcast
11:15 PM 55.4 °F 53.6 °F 94% 30.04 in 3.0 mi NW 4.6 mph - 0.00 in   Overcast
11:35 PM 55.4 °F 53.6 °F 94% 30.03 in 1.5 mi NNW 3.5 mph - 0.00 in   Overcast
11:55 PM 55.4 °F 53.6 °F 94% 30.03 in 2.5 mi NNW 4.6 mph - 0.00 in   Overcast